Regional Weather Roundup
Issued by NWS

Home | Current Version | Previous Version | Text Only | Print | Product List | Glossary On
Versions: 1 2 3 4 5 6 7 8 9 10 11 12 13 14 15 16 17 18 19 20 21 22 23 24 25 26 27 28 29 30 31 32 33 34 35 36 37 38 39 40 41 42 43 44 45 46 47 48 49 50
000
ASUS44 KJAN 292220
RWRMS

MISSISSIPPI HOURLY WEATHER ROUNDUP
NATIONAL WEATHER SERVICE JACKSON MS
500 PM CDT FRI JUL 29 2016

NOTE: "FAIR: INDICATES FEW OR NO CLOUDS BELOW 12,000 FEET WITH NO
SIGNIFICANT WEATHER AND/OR OBSTRUCTIONS TO VISIBILITY.

MSZ001>002-007>008-010>013-018>021-025>028-034>036-292300-
NORTHWEST MISSISSIPPI

CITY           SKY/WX    TMP DP  RH WIND       PRES   REMARKS
CLEVELAND      FAIR      88  82  83 SW8       29.95R HX 107
GREENWOOD      CLOUDY    88  73  61 SW6       29.95S HX  95
GREENVILLE     PTSUNNY   91  75  59 W8        29.94F HX 101
OXFORD         FAIR      86  73  66 S5        29.97S HX  93
WINONA         MOCLDY    87  75  66 W6        29.96S HX  96
$$

MSZ003>006-009-014>017-022>024-029>033-037>039-292300-
NORTHEAST MISSISSIPPI

CITY           SKY/WX    TMP DP  RH WIND       PRES   REMARKS
ABERDEEN       FAIR      90  72  55 W5        29.97R HX  96
COLUMBUS AFB   MOSUNNY   90  79  70 SW8       29.95S HX 105
GOLDN TRIANGLE MOSUNNY   88  72  58 W7        29.96R HX  94
TUPELO         PTSUNNY   90  72  55 SW9       29.95R HX  97
$$

MSZ040-058-292300-
CENTRAL MISSISSIPPI

CITY           SKY/WX    TMP DP  RH WIND       PRES   REMARKS
JACKSON INTL   SUNNY     90  72  55 SW6       29.97F HX  97
JACKSON HAWKNS MOSUNNY   89  71  55 SW7       29.98F HX  95
MADISON        FAIR      88  70  55 W6        29.97S HX  92
MERIDIAN KEY   SUNNY     91  69  48 SW8       29.98S HX  96
MERIDIAN NAS   CLOUDY    93  66  40 VRB7G16   29.97S HX  96
VICKSBURG VKS  PTCLDY    90  73  58 VRB3      29.96F HX  98
$$

MSZ059>079-292300-
SOUTH MISSISSIPPI

CITY           SKY/WX    TMP DP  RH WIND       PRES   REMARKS
BROOKHAVEN     FAIR     N/A N/A N/A SW3       30.02R
COLUMBIA       FAIR      84  73  70 W3        30.02F HX  91
HATTIESBURG    MOSUNNY   87  73  62 W5        29.99F HX  94
MCCOMB         CLOUDY    80  71  74 NW5       30.00F
NATCHEZ        CLOUDY    84  75  74 W6        29.99S HX  92
PINE BELT      MOSUNNY   79  73  83 SW3       30.01F
$$

MSZ080>082-292300-
COASTAL MISSISSIPPI

CITY           SKY/WX    TMP DP  RH WIND       PRES   REMARKS
BAY ST LOUIS   MOSUNNY   90  72  55 SW8       29.99F HX  96
BILOXI         SUNNY     89  77  67 SW9       29.98F HX 102
PASCAGOULA     CLOUDY    81  76  84 SW5       29.99F
GULFPORT       PTSUNNY   87  76  69 S6        29.97F HX  97
$$

LAZ007>009-015>016-023>026-292300-
NORTHEAST LOUISIANA

CITY           SKY/WX    TMP DP  RH WIND       PRES   REMARKS
BASTROP        FAIR      91  75  60 SW7       29.96F HX 101
TALLULAH/VBURG MOSUNNY   92  75  57 CALM      29.96S HX 103
VIDALIA        FAIR      85  78  79 SW6       30.01F HX  98
$$




USA.gov is the U.S. government's official web portal to all federal, state and local government web resources and services.